DG2GGP-11 Weather Reports


time (UTC)temp
C
wind
direction
speed
KPH
gust
KPH
rain 1hr
cm
rain 24hr
cm
rain mn
cm
humidity
%
barometer
mb
20260507144254 13 220 8.0 0.0 0.00 1.04 0.84 71 1015.2
20260507143254 13 350 8.0 0.0 0.00 1.04 0.84 70 1015.2
20260507142254 12 3 9.7 0.0 0.00 1.04 0.84 72 1015.2
20260507141254 12 308 9.7 0.0 0.00 1.04 0.84 74 1015.2
20260507140254 12 275 12.9 0.0 0.00 1.04 0.84 75 1015.3
20260507135254 12 355 11.3 0.0 0.00 1.04 0.84 75 1015.5
20260507134254 12 225 8.0 0.0 0.00 1.04 0.84 76 1015.4
20260507133254 12 20 9.7 0.0 0.00 1.04 0.84 74 1015.4
20260507132254 12 355 6.4 0.0 0.00 1.04 0.84 73 1015.4
20260507131254 12 5 6.4 0.0 0.00 1.04 0.84 74 1015.3
20260507130254 12 50 3.2 0.0 0.00 1.04 0.84 76 1015.4
20260507125254 11 65 9.7 0.0 0.00 1.04 0.84 77 1015.4
20260507124254 11 43 6.4 0.0 0.00 1.04 0.84 77 1015.4
20260507123254 11 138 8.0 0.0 0.00 1.04 0.84 78 1015.3
20260507122255 11 255 9.7 0.0 0.00 1.04 0.84 78 1015.3
20260507121255 11 340 11.3 0.0 0.00 1.04 0.84 79 1015.3
20260507120254 12 348 8.0 0.0 0.00 1.04 0.84 77 1015.2
20260507115255 11 30 8.0 0.0 0.00 1.04 0.84 76 1015.2
20260507114255 12 183 9.7 0.0 0.00 1.04 0.84 77 1015.2
20260507113255 12 208 9.7 0.0 0.00 1.04 0.84 78 1015.2
20260507112255 12 238 11.3 0.0 0.00 1.04 0.84 80 1015.2
20260507111254 11 260 17.7 0.0 0.00 1.04 0.84 81 1015.1
20260507110254 11 93 9.7 0.0 0.00 1.04 0.84 83 1015.2
20260507105255 11 345 11.3 0.0 0.00 1.04 0.84 84 1015.1
20260507104254 10 340 14.5 0.0 0.00 1.04 0.84 85 1015.1
20260507103254 10 40 8.0 0.0 0.00 1.04 0.84 87 1015.2
20260507102254 9 55 6.4 0.0 0.00 1.04 0.84 87 1015.2
20260507101254 9 85 6.4 0.0 0.00 1.04 0.84 87 1015.2
20260507100254 8 75 6.4 0.0 0.00 1.04 0.84 87 1015.1
20260507095254 8 3 11.3 0.0 0.00 1.04 0.84 88 1015.0
20260507094254 8 10 12.9 0.0 0.00 1.04 0.79 88 1015.0
20260507093255 8 28 11.3 0.0 0.00 1.04 0.79 89 1014.9
20260507092254 8 293 8.0 0.0 0.00 1.04 0.79 89 1014.8
20260507091255 8 358 9.7 0.0 0.00 1.04 0.76 89 1014.6
20260507090254 8 23 9.7 0.0 0.00 1.04 0.69 88 1014.5
20260507085254 9 20 0.0 0.0 0.00 1.04 0.58 89 1014.4
20260507084255 9 230 4.8 0.0 0.00 1.04 0.56 88 1014.4
20260507083255 9 3 8.0 0.0 0.00 1.04 0.56 86 1014.3
20260507082254 10 43 3.2 0.0 0.00 1.04 0.56 87 1014.2
20260507081254 9 28 6.4 0.0 0.00 1.04 0.53 88 1014.1
20260507080255 8 215 0.0 0.0 0.00 1.04 0.53 88 1014.2
20260507075254 8 0 6.4 0.0 0.00 1.04 0.51 87 1014.1
20260507074254 9 340 4.8 0.0 0.00 1.04 0.41 85 1014.0
20260507073254 8 153 4.8 0.0 0.00 1.04 0.41 86 1013.9
20260507072255 9 123 0.0 0.0 0.00 1.04 0.41 86 1013.7
20260507071254 8 113 6.4 0.0 0.00 1.04 0.41 86 1013.7
20260507070254 8 113 6.4 0.0 0.00 1.04 0.41 86 1013.7
20260507065254 8 130 4.8 0.0 0.00 1.04 0.41 87 1013.7
20260507064255 8 115 4.8 0.0 0.00 1.04 0.41 87 1013.6
20260507063255 8 18 0.0 0.0 0.00 1.04 0.41 88 1013.5
20260507062254 7 283 6.4 0.0 0.00 1.04 0.41 90 1013.4
20260507061258 7 5 0.0 0.0 0.00 1.04 0.41 91 1013.4
20260507060254 7 5 0.0 0.0 0.00 1.04 0.41 91 1013.3
20260507055254 7 20 0.0 0.0 0.00 1.04 0.41 92 1013.2
20260507054254 7 20 0.0 0.0 0.00 1.04 0.41 92 1013.1
20260507053255 7 20 0.0 0.0 0.00 1.04 0.41 92 1013.0
20260507052254 7 273 0.0 0.0 0.00 1.04 0.41 92 1012.9
20260507051255 7 243 4.8 0.0 0.00 1.04 0.41 92 1012.8
20260507050254 7 260 6.4 0.0 0.00 1.04 0.41 92 1012.6
20260507045255 7 223 6.4 0.0 0.00 1.04 0.41 92 1012.5
20260507044254 7 213 6.4 0.0 0.00 1.04 0.41 92 1012.4
20260507043254 6 343 0.0 0.0 0.00 1.04 0.41 92 1012.4
20260507042255 6 315 6.4 0.0 0.00 1.04 0.38 92 1012.2
20260507041254 6 195 4.8 0.0 0.00 1.04 0.38 91 1012.1
20260507040254 6 198 4.8 0.0 0.00 1.04 0.38 91 1011.9
20260507035254 6 238 6.4 0.0 0.00 1.04 0.38 91 1011.9
20260507034255 6 210 6.4 0.0 0.00 1.04 0.38 91 1011.8
20260507033255 6 190 3.2 0.0 0.00 1.04 0.36 91 1011.8
20260507032255 6 215 8.0 0.0 0.00 1.04 0.36 91 1011.7
20260507031255 6 195 4.8 0.0 0.00 1.04 0.33 91 1011.6
20260507030254 6 233 8.0 0.0 0.00 1.04 0.30 91 1011.6
20260507025254 6 208 0.0 0.0 0.00 1.04 0.28 91 1011.5
20260507024254 6 210 6.4 0.0 0.00 1.04 0.23 91 1011.5
20260507023259 6 175 6.4 0.0 0.00 1.04 0.20 90 1011.5
20260507022255 6 188 6.4 0.0 0.00 1.04 0.15 90 1011.4
20260507021254 6 205 4.8 0.0 0.00 1.04 0.10 90 1011.3
20260507020254 7 200 8.0 0.0 0.00 1.04 0.05 89 1011.2
20260507015254 7 170 6.4 0.0 0.00 1.04 0.03 89 1011.2
20260507014254 7 168 6.4 0.0 0.00 1.04 0.03 89 1011.1
20260507013254 7 178 6.4 0.0 0.00 1.04 0.03 88 1011.0
20260507012254 7 198 8.0 0.0 0.00 1.04 0.03 89 1011.0
20260507011254 7 200 9.7 0.0 0.00 1.04 0.03 89 1010.8
20260507010254 7 178 9.7 0.0 0.00 1.04 0.03 89 1010.8
20260507005254 7 195 6.4 0.0 0.00 1.04 0.03 88 1010.8
20260507004255 7 190 8.0 0.0 0.00 1.04 0.03 88 1010.8
20260507003254 7 193 8.0 0.0 0.00 1.04 0.00 88 1010.8
20260507002254 7 208 8.0 0.0 0.00 1.04 0.00 88 1010.8
20260507001254 7 198 6.4 0.0 0.00 1.04 0.00 88 1010.9
20260507000255 7 233 8.0 0.0 0.00 1.04 0.00 88 1010.9
20260506235254 7 203 12.9 0.0 0.00 1.04 0.00 88 1010.9
20260506234254 7 185 9.7 0.0 0.00 1.04 0.00 89 1010.9
20260506233254 7 155 6.4 0.0 0.00 1.04 0.00 90 1011.0
20260506232254 7 195 8.0 0.0 0.00 1.04 0.00 90 1010.8
20260506231254 7 195 0.0 0.0 0.00 1.04 0.00 90 1010.8
20260506230255 7 218 0.0 0.0 0.00 1.04 0.00 90 1010.8
20260506225255 7 208 3.2 0.0 0.00 1.04 0.00 90 1010.8
20260506224254 7 210 0.0 0.0 0.00 1.04 0.00 90 1010.7
20260506223254 7 203 0.0 0.0 0.00 1.04 0.00 89 1010.7
20260506222255 7 210 9.7 0.0 0.00 1.04 0.00 89 1010.9
20260506221255 7 180 6.4 0.0 0.00 1.04 0.00 89 1011.0
20260506220254 7 193 6.4 0.0 0.00 1.04 0.00 89 1011.1
20260506215255 7 198 8.0 0.0 0.00 0.56 1.04 89 1011.0
20260506214255 7 170 11.3 0.0 0.00 0.56 1.04 89 1010.9
20260506213254 7 200 8.0 0.0 0.00 0.56 1.04 89 1010.8
20260506212255 7 160 6.4 0.0 0.00 0.56 1.04 90 1010.8
20260506211254 7 225 8.0 0.0 0.00 0.56 1.04 90 1010.6
20260506210254 7 193 6.4 0.0 0.00 0.56 1.04 90 1010.6
20260506205255 7 258 6.4 0.0 0.00 0.56 1.04 90 1010.5
20260506204255 7 228 6.4 0.0 0.00 0.56 1.04 90 1010.5
20260506203254 7 215 3.2 0.0 0.00 0.56 1.04 89 1010.5
20260506202254 7 210 4.8 0.0 0.00 0.56 1.04 89 1010.5
20260506201254 7 178 8.0 0.0 0.00 0.56 0.99 89 1010.5
20260506200255 7 190 4.8 0.0 0.00 0.56 0.97 88 1010.4
20260506195254 7 205 9.7 0.0 0.00 0.56 0.94 88 1010.3
20260506194255 7 250 6.4 0.0 0.00 0.56 0.91 88 1010.2
20260506193256 7 208 9.7 0.0 0.00 0.56 0.89 88 1010.1
20260506192255 8 185 8.0 0.0 0.00 0.56 0.84 89 1010.1
20260506191254 8 223 6.4 0.0 0.00 0.56 0.81 89 1009.9
20260506190255 8 203 8.0 0.0 0.00 0.56 0.71 90 1009.8
20260506185255 8 215 6.4 0.0 0.00 0.56 0.71 90 1009.7
20260506184255 8 193 6.4 0.0 0.00 0.56 0.71 90 1009.6
20260506183254 8 183 6.4 0.0 0.00 0.56 0.69 89 1009.5
20260506182254 8 180 6.4 0.0 0.00 0.56 0.66 89 1009.4
20260506181254 8 213 8.0 0.0 0.00 0.56 0.66 88 1009.3
20260506180254 8 225 8.0 0.0 0.00 0.56 0.61 88 1009.2
20260506174916 8 225 11.3 0.0 0.00 0.56 0.58 88 1009.0
20260506173916 8 215 9.7 0.0 0.00 0.56 0.56 87 1008.8
20260506172916 8 205 11.3 0.0 0.00 0.56 0.56 87 1008.6
20260506171916 8 205 8.0 0.0 0.00 0.56 0.53 87 1008.5
20260506170916 8 220 9.7 0.0 0.00 0.56 0.53 86 1008.5
20260506165916 8 220 9.7 0.0 0.00 0.56 0.53 86 1008.5
20260506164916 9 215 11.3 0.0 0.00 0.56 0.51 86 1008.4
20260506163916 9 215 9.7 0.0 0.00 0.56 0.51 85 1008.4
20260506162916 9 210 9.7 0.0 0.00 0.56 0.48 85 1008.5
20260506160916 10 205 6.4 0.0 0.00 0.56 0.41 86 1008.6
20260506155916 10 158 3.2 0.0 0.00 0.56 0.38 86 1008.5
20260506154916 10 240 9.7 0.0 0.00 0.56 0.36 85 1008.4
20260506153916 10 215 9.7 0.0 0.00 0.56 0.36 85 1008.4
20260506152916 10 183 9.7 0.0 0.00 0.56 0.33 85 1008.3
20260506151916 10 125 6.4 0.0 0.00 0.56 0.33 85 1008.2
20260506150916 10 168 8.0 0.0 0.00 0.56 0.28 84 1008.2
20260506145916 10 185 9.7 0.0 0.00 0.56 0.28 84 1008.1
20260506144916 10 238 11.3 0.0 0.00 0.56 0.25 83 1008.0